SL-14 DEB, 47091

Orbit data source: Space-Track

SL-14 DEB, 47091 is space debris in LEO originally from a launch on Thu, 15 Aug 1991 UTC launched from the Plesetsk Missile And Space Complex (PKMTR). Debris objects in space refer to the collection of defunct objects orbiting the Earth. Examples of debris include non-operational satellites, rocket bodies, and fragments generated from explosions, collisions, or faulty payload assembly.

Loading next visibility...
Identifier
47091, 1991-056DR
Orbit
LEO
Country
Flag of CISCIS
Related business
Manufacturer
Unknown
Mission
Spacecraft
Bus & Motor
Unknown
Mass
Unknown
Launch date (UTC)
1991-08-15 (35 years ago)
Launch vehicle
Unknown
Launch site
Plesetsk Missile And Space Complex (PKMTR)
Object type
Payload
Rocket body
Debris
Shape & HBR
Unknown shape, 0.1 m
Radar Cross Section
Small (<0.1 m²)

Expand to show TLE details & history
Last TLE update: 5 days ago

TLE from 5 days ago
0 SL-14 DEB
1 47091U 91056DR  26233.60786864  .00000409  00000-0  97888-3 0  9999
2 47091  82.5982  97.1953 0006682 175.8826 184.2354 13.20546176279279
Epoch: 2026-08-21T14:35Z
TLE epoch observation values (Epoch: 2026-08-21T14:35:19.850Z)
Latitude
-0.00009°
Longitude
-91.56761°
Altitude
1,190.487 km
Speed
7.256 km/s
True Right ascension
06h 28m 46s
True Declination
0° 00' 00"
Sunlit
Object was in daylight at epoch
Visualization orbit readout
Latitude
Unknown
Longitude
Unknown
Altitude
Unknown
Speed
Unknown
Apparent Right ascension
Unknown
Apparent Declination
Unknown
Sunlit
N/A
Visualization observer readout
Local Sidereal Time
19:09:37
Azimuth
Unknown
Elevation
Unknown
Doppler factor
Unknown
Orbital elements
Apogee altitude
1,184.923 km
Perigee altitude
1,174.822 km
Semi-major axis
7,558.009 km
Eccentricity
0.00067
Inclination
82.5982°
RAAN
97.1953°
Arg. of periapsis
175.8826°
True anomaly
184.22975°
Mean anomaly
184.2354°
Eccentric anomaly
184.23257°
Mean motion
3.30318 °/min
Orbital period
108.99 mins
BSTAR
0.00097888
Loading maneuver chart data...
Computing Atmospheric mass density...
Loading historical data...
Loading historical data...
Loading historical data...
Loading historical data...
Loading historical data...
Loading historical data...
Loading historical data...

Documentation

Showing up to 5 results
|